Location: USNO
(38.9242°N, 77.0663°W)
Time: 00:18:56
(UTC-05:00)

Vanguard 3 - Visible Passes

Search period start: 16 December 2017 00:00
Search period end: 26 December 2017 00:00
Orbit: 509 x 3263 km, 33.3° (Epoch: 14 December)

Date Brightness Start Highest point End Pass type
(mag) Time Alt. Az. Time Alt. Az. Time Alt. Az.
21 Dec 11.5 06:14:08 10° SSE 06:17:14 11° SSE 06:20:01 10° SE visible
23 Dec 11.4 05:53:38 10° S 06:01:21 16° SSE 06:07:25 10° ESE visible
24 Dec 10.8 06:48:52 10° SSW 07:00:17 28° SSE 07:07:52 10° ESE visible
25 Dec 11.2 05:34:36 10° SSW 05:45:19 21° SSE 05:53:15 10° ESE visible
